Regional Weather Roundup
Issued by NWS

Home | Current Version | Previous Version | Text Only | Print | Product List | Glossary Off
Versions: 1 2 3 4 5 6 7 8 9 10 11 12 13 14 15 16 17 18 19 20 21 22 23 24 25 26 27 28 29 30 31 32 33 34 35 36 37 38 39 40 41 42 43 44 45 46 47 48 49 50

000
ASUS43 KDTX 290910
RWRMI
MICHIGAN HOURLY REGIONAL WEATHER ROUNDUP
NATIONAL WEATHER SERVICE DETROIT/PONTIAC MI
500 AM EDT SUN MAR 29 2015

NOTE: "FAIR" INDICATES FEW OR NO CLOUDS BELOW 12,000 FEET WITH NO
SIGNIFICANT WEATHER AND/OR OBSTRUCTION TO VISIBILITY.

MIZ047>049-052>055-059>063-066>070-074>076-081>083-291000-
SOUTHEAST LOWER MICHIGAN

CITY           SKY/WX    TMP DP  RH WIND       PRES   REMARKS
ADRIAN         CLEAR     21  14  74 SW5       30.28F WCI  15
ALMA           CLEAR     21  13  70 S6        30.21F WCI  14
ANN ARBOR      CLEAR     13  11  92 CALM      30.25F
BAD AXE        CLEAR     23  13  68 SW6       30.20F WCI  15
CARO           CLEAR     19  12  73 CALM      30.21F
DETROIT CITY   CLEAR     24  15  68 CALM      30.27F
DETROIT        FAIR      20  12  71 S7        30.28F WCI  11
FLINT          CLEAR     24  11  57 S7        30.23F WCI  16
GROSSE ILE     CLEAR     27  16  63 SW6       30.27S WCI  20
HILLSDALE      CLEAR     17  12  83 S5        30.23F WCI  10
HOWELL         CLEAR     21  11  65 S6        30.23S WCI  13

CITY           SKY/WX    TMP DP  RH WIND       PRES   REMARKS
JACKSON        CLEAR     19  10  68 S3        30.23F
LAMBERTVILLE   CLEAR     28  16  59 SW5       30.29S WCI  23
LANSING        CLEAR     21  10  62 S6        30.23F WCI  13
LAPEER         FAIR      18  11  74 SW3       30.23F
MASON          CLEAR     21  15  76 S3        30.23F
MONROE         CLEAR     25  18  74 SW6       30.27F WCI  18
MT. CLEMENS    CLEAR     23  18  80 SW5       30.23F WCI  17
PONTIAC        CLEAR     17  10  74 CALM      30.22F
PORT HOPE        N/A     25  14  63 SW3       30.19F
PORT HURON     CLEAR     19  18  93 CALM      30.26S
TRI CITIES     CLEAR     23  13  65 SW7       30.21F WCI  15
TROY           CLEAR     23  14  68 CALM      30.27F
SAGINAW HB     CLEAR     21  14  73 S7        30.21  WCI  13
$$
MIZ043>046-050>051-056>058-064>065-071>073-077>080-291000-
SOUTHWEST LOWER MICHIGAN

CITY           SKY/WX    TMP DP  RH WIND       PRES   REMARKS
BATTLE CREEK   CLEAR     21  12  68 S9        30.23F WCI  11
BENTON HARBOR  PTCLDY    22  14  71 S7        30.22F WCI  13
BIG RAPIDS     CLEAR     20  10  66 S3        30.16F
COLDWATER      CLEAR     19  14  79 S5        30.24F WCI  13
FREMONT        FAIR      20   8  60 CALM      30.18F
HOLLAND        CLEAR     22  11  62 S8        30.21F WCI  12
GRAND RAPIDS   CLEAR     21   9  59 S9        30.21F WCI  11
IONIA          FAIR      24  13  62 S8        30.20F WCI  15
KALAMAZOO      CLEAR     22  14  71 S6        30.23F WCI  14
LUDINGTON      CLEAR     28  21  74 S9        30.14F WCI  19
MARSHALL       CLEAR     21  12  69 S3        30.23S
MOUNT PLEASANT CLEAR     22   8  55 S3        30.18F
MUSKEGON       PTCLDY    22  14  71 S7        30.19F WCI  13
SOUTH HAVEN    PTCLDY    24  14  65 S6        30.22F WCI  17
$$
MIZ016>042-291000-
NORTHERN LOWER MICHIGAN

CITY           SKY/WX    TMP DP  RH WIND       PRES   REMARKS
ALPENA         CLEAR     22   7  52 S6        30.14F WCI  14
BEAVER ISLAND  CLEAR     26  21  83 S9G16     30.05F WCI  16
BELLAIRE       CLEAR     25   8  47 CALM      30.12F
CADILLAC       CLEAR     18   4  54 S3        30.10F
CHARLEVOIX     CLEAR     26  11  54 S9        30.11F WCI  16
FRANKFORT      CLEAR     29  18  64 S7        30.10F WCI  22
GAYLORD        CLEAR     23   7  50 SW12      30.08F WCI  12
GRAYLING       CLEAR     22   2  42 SW6       30.12F WCI  14
HARBOR SPRINGS PTCLDY    23   8  53 CALM      30.09F
HOUGHTON LAKE  CLEAR     20   5  52 S6        30.14F WCI  12
MANISTEE       CLEAR     21  14  73 SE3       30.13F
OSCODA         CLEAR     17  10  76 SW6       30.18S WCI   8
PELLSTON       PTCLDY    26   8  46 S5        30.08F WCI  20
ROGERS CITY    CLEAR     22  10  57 SW8       30.12F WCI  13
TRAVERSE CITY  CLEAR     26   8  46 S5        30.10F WCI  20
$$
MIZ007>008-015-291000-
EASTERN UPPER MICHIGAN

CITY           SKY/WX    TMP DP  RH WIND       PRES   REMARKS
KINROSS        PTCLDY    19  10  68 S6        30.04F WCI  11
MACKINAC ISLAN PTCLDY    24  10  53 S10G16    30.06F WCI  14
NEWBERRY       PTCLDY    23  22  96 S8        30.00F WCI  14
S. S. MARIE    MOCLDY    15   9  76 E6        30.05F WCI   6
MUNISING         N/A     31  17  56 S13G22    29.95F WCI  21
$$
MIZ004>006-011>014-085-291000-
CENTRAL UPPER MICHIGAN

CITY           SKY/WX    TMP DP  RH WIND       PRES   REMARKS
MANISTIQUE     PTCLDY    31  28  89 SW15G23   30.01F WCI  20
ESCANABA       PTCLDY    28  19  69 SW16G24   29.99F WCI  17
MENOMINEE      MOCLDY    28  19  69 SW10      30.02F WCI  19
SAWYER-GWINN   PTCLDY    26  16  66 S15       29.90F WCI  13
$$
MIZ001>003-009>011-084-291000-
WESTERN UPPER MICHIGAN

CITY           SKY/WX    TMP DP  RH WIND       PRES   REMARKS
IRON MOUNTAIN  CLOUDY    29  14  53 S12       29.92F WCI  19
HOUGHTON       CLOUDY    32  14  47 S14       29.81F WCI  22
COPPER HARBOR    N/A     32  17  54 SW10G21   29.82F WCI  24
IRONWOOD       CLOUDY    34  16  47 SW14G21   29.77F WCI  24
$$

ABBREVIATIONS USED IN REMARKS
   TC - TEMPERATURE IN CELSIUS
  WCI - WIND CHILL INDEX
   HX - HEAT INDEX
  VSB - VISIBILITY



USA.gov is the U.S. government's official web portal to all federal, state and local government web resources and services.